McCall, ID

1:45 PM MDT on September 19, 2017 (GMT -0600)
McCall

Weather History for KMYL - November, 2012

Change the Weather History Date:

Friday, November 9, 2012

  Actual Average Record
Temperature  
Mean Temperature 23 °F 32 °F  
Max Temperature 29 °F 41 °F 63 °F (2016)
Min Temperature 16 °F 22 °F 2 °F (1986)
Degree Days  
Heating Degree Days 42 33  
Month to date heating degree days 238 286  
Since 1 July heating degree days 1327 1829  
Cooling Degree Days 0 0  
Month to date cooling degree days 0 0  
Year to date cooling degree days 172 25  
Moisture  
Dew Point 23 °F    
Average Humidity 85    
Maximum Humidity 92    
Minimum Humidity 78    
Precipitation  
Precipitation 0.04 in 0.10 in 0.95 in (1949)
Month to date precipitation 0.42 0.92  
Year to date precipitation 21.95 16.24  
Sea Level Pressure  
Sea Level Pressure 29.66 in    
Wind  
Wind Speed 4 mph (West)    
Max Wind Speed 12 mph    
Max Gust Speed 17 mph    
Visibility 6 miles    
Events Snow    
T = Trace of Precipitation, MM = Missing Value Source: NWS Daily Summary

Daily Weather History Graph

Daily Weather History Graph

Search for Another Location

Airport or City:

Trip Planner

Search our weather history database for the weather conditions in past years. The results will help you decide how hot, cold, wet, or windy it might be!

Date:

Astronomy

Nov. 09, 2012 Rise Set
Actual Time 7:34 AM MST 5:21 PM MST
Civil Twilight 7:03 AM MST 5:52 PM MST
Nautical Twilight 6:27 AM MST 6:27 PM MST
Astronomical Twilight 5:53 AM MST 7:02 PM MST
Moon 2:26 AM MST (11/9) 2:47 PM MST (11/9)
Length of Visible Light 10h 49m
Length of Day
9h 47m
Waning Crescent, 22% of the Moon is Illuminated
Nov 9
Waning Crescent
Nov 13
New
Nov 20
First Quarter
Nov 28
Full
Dec 6
Last Quarter

Hourly Weather History & Observations

Time (MST) Temp. Windchill Dew Point Humidity Pressure Visibility Wind Dir Wind Speed Gust Speed Precip Events Conditions
12:10 AM 28.4 °F 22.2 °F 26.6 °F 93% 29.59 in 10.0 mi WNW 5.8 mph - N/A   Overcast
12:28 AM 28.4 °F - 26.6 °F 93% 29.59 in 10.0 mi Calm Calm - N/A   Overcast
12:51 AM 28.9 °F 25.2 °F 27.0 °F 92% 29.63 in 10.0 mi WNW 3.5 mph - N/A   Overcast
1:33 AM 28.4 °F - 26.6 °F 93% 29.58 in 10.0 mi Calm Calm - N/A   Mostly Cloudy
1:51 AM 28.0 °F 22.8 °F 26.1 °F 92% 29.61 in 10.0 mi West 4.6 mph - N/A   Mostly Cloudy
1:58 AM 28.4 °F 22.2 °F 26.6 °F 93% 29.58 in 10.0 mi WSW 5.8 mph - N/A   Overcast
2:51 AM 28.0 °F - 26.1 °F 92% 29.63 in 10.0 mi Calm Calm - N/A   Overcast
3:06 AM 26.6 °F - 24.8 °F 93% 29.60 in 10.0 mi Calm Calm - N/A   Mostly Cloudy
3:40 AM 26.6 °F - 26.6 °F 100% 29.60 in 10.0 mi Calm Calm - N/A   Overcast
3:51 AM 28.0 °F - 25.0 °F 88% 29.64 in 10.0 mi Calm Calm - N/A   Overcast
4:42 AM 28.4 °F - 26.6 °F 93% 29.60 in 10.0 mi Calm Calm - N/A   Overcast
5:25 AM 26.6 °F - 24.8 °F 93% 29.61 in 10.0 mi Calm Calm - N/A   Overcast
5:42 AM 26.6 °F - 24.8 °F 93% 29.61 in 10.0 mi Calm Calm - N/A   Overcast
5:51 AM 27.0 °F - 25.0 °F 92% 29.66 in 10.0 mi Calm Calm - N/A   Overcast
6:51 AM 27.0 °F 23.0 °F 25.0 °F 92% 29.67 in 10.0 mi WSW 3.5 mph - N/A   Overcast
7:00 AM 26.6 °F 22.6 °F 24.8 °F 93% 29.62 in 10.0 mi SW 3.5 mph - N/A   Overcast
7:44 AM 26.6 °F - 24.8 °F 93% 29.62 in 2.5 mi Calm Calm - 0.00 in Snow Light Snow
8:15 AM 26.6 °F 20.0 °F 23.0 °F 86% 29.63 in 0.8 mi West 5.8 mph - 0.00 in Snow Light Snow
8:24 AM 26.6 °F 21.2 °F 23.0 °F 86% 29.63 in 0.8 mi West 4.6 mph - 0.00 in Snow Light Snow
8:27 AM 26.6 °F - 23.0 °F 86% 29.63 in 1.0 mi Calm Calm - 0.01 in Snow Light Snow
8:35 AM 26.6 °F 22.6 °F 23.0 °F 86% 29.63 in 1.2 mi WNW 3.5 mph - 0.01 in Snow Light Snow
8:47 AM 26.6 °F 20.0 °F 23.0 °F 86% 29.63 in 2.0 mi WNW 5.8 mph - 0.01 in Snow Light Snow
8:51 AM 26.1 °F 20.5 °F 23.0 °F 88% 29.70 in 2.5 mi WNW 4.6 mph - 0.01 in Snow Light Snow
9:03 AM 26.6 °F 22.6 °F 23.0 °F 86% 29.64 in 1.5 mi Variable 3.5 mph - 0.00 in Snow Light Snow
9:17 AM 26.6 °F 19.1 °F 23.0 °F 86% 29.64 in 1.5 mi WNW 6.9 mph - 0.00 in Snow Light Snow
9:49 AM 26.6 °F 22.6 °F 23.0 °F 86% 29.64 in 1.5 mi WSW 3.5 mph - 0.01 in Snow Light Snow
9:51 AM 26.1 °F 19.4 °F 23.0 °F 88% 29.71 in 1.5 mi West 5.8 mph - 0.01 in Snow Light Snow
10:07 AM 26.6 °F 19.1 °F 23.0 °F 86% 29.64 in 3.0 mi West 6.9 mph - 0.00 in Snow Light Snow
10:33 AM 26.6 °F 20.0 °F 23.0 °F 86% 29.64 in 4.0 mi West 5.8 mph - 0.00 in Snow Light Snow
10:42 AM 26.6 °F 19.1 °F 23.0 °F 86% 29.64 in 5.0 mi West 6.9 mph - 0.00 in Snow Light Snow
10:49 AM 28.4 °F 22.2 °F 24.8 °F 86% 29.64 in 5.0 mi West 5.8 mph - 0.00 in Snow Light Snow
10:51 AM 28.0 °F 21.7 °F 24.1 °F 85% 29.71 in 4.0 mi West 5.8 mph - 0.00 in Snow Light Snow
11:51 AM 27.0 °F 19.5 °F 23.0 °F 85% 29.72 in 7.0 mi West 6.9 mph - 0.00 in Snow Light Snow
12:51 PM 28.0 °F 22.8 °F 23.0 °F 81% 29.71 in 1.8 mi West 4.6 mph - 0.00 in Snow Light Snow
1:02 PM 28.4 °F 23.3 °F 23.0 °F 80% 29.64 in 3.0 mi West 4.6 mph - 0.00 in Snow Light Snow
1:32 PM 28.4 °F 21.2 °F 23.0 °F 80% 29.63 in 5.0 mi WNW 6.9 mph - 0.00 in Snow Light Snow
1:51 PM 28.9 °F 22.8 °F 21.9 °F 75% 29.70 in 10.0 mi West 5.8 mph - 0.00 in   Overcast
2:04 PM 28.4 °F 19.7 °F 21.2 °F 74% 29.63 in 10.0 mi West 9.2 mph - N/A   Overcast
2:48 PM 28.4 °F - 23.0 °F 80% 29.63 in 7.0 mi Calm Calm - N/A   Overcast
2:51 PM 28.0 °F - 24.1 °F 85% 29.71 in 5.0 mi Calm Calm - 0.00 in Snow Light Snow
3:07 PM 28.4 °F 21.2 °F 23.0 °F 80% 29.63 in 10.0 mi Variable 6.9 mph - 0.00 in   Overcast
3:23 PM 28.4 °F 19.7 °F 23.0 °F 80% 29.63 in 2.5 mi NNW 9.2 mph - 0.00 in Snow Light Snow
3:28 PM 28.4 °F 19.7 °F 23.0 °F 80% 29.63 in 3.0 mi WNW 9.2 mph - 0.00 in Snow Light Snow
3:48 PM 28.4 °F 21.2 °F 21.2 °F 74% 29.63 in 10.0 mi West 6.9 mph - 0.01 in   Overcast
3:51 PM 28.0 °F 20.0 °F 21.9 °F 78% 29.71 in 10.0 mi West 8.1 mph - 0.01 in   Overcast
4:51 PM 27.0 °F 18.7 °F 21.9 °F 81% 29.72 in 7.0 mi WNW 8.1 mph - 0.00 in Snow Light Snow
5:51 PM 26.1 °F 19.4 °F 21.9 °F 84% 29.74 in 3.0 mi WNW 5.8 mph - 0.00 in Snow Light Snow
6:03 PM 26.6 °F 20.0 °F 21.2 °F 80% 29.66 in 3.0 mi WNW 5.8 mph - 0.00 in Snow Light Snow
6:18 PM 26.6 °F 18.2 °F 21.2 °F 80% 29.66 in 2.5 mi WNW 8.1 mph - 0.00 in Snow Light Snow
6:25 PM 24.8 °F 16.1 °F 21.2 °F 86% 29.66 in 2.5 mi West 8.1 mph - 0.00 in Snow Light Snow
6:29 PM 26.6 °F 20.0 °F 21.2 °F 80% 29.66 in 1.8 mi WNW 5.8 mph - 0.00 in Snow Light Snow
6:49 PM 24.8 °F 16.9 °F 21.2 °F 86% 29.67 in 2.0 mi West 6.9 mph - 0.01 in Snow Light Snow
6:51 PM 25.0 °F 18.1 °F 21.9 °F 88% 29.76 in 2.0 mi West 5.8 mph - 0.01 in Snow Light Snow
6:59 PM 24.8 °F 19.1 °F 21.2 °F 86% 29.67 in 3.0 mi WSW 4.6 mph - 0.00 in Snow Light Snow
7:19 PM 24.8 °F 20.5 °F 21.2 °F 86% 29.67 in 5.0 mi West 3.5 mph - 0.00 in Snow Light Snow
7:51 PM 23.0 °F 14.7 °F 19.0 °F 85% 29.77 in 10.0 mi West 6.9 mph - 0.00 in   Scattered Clouds
8:51 PM 21.0 °F 14.6 °F 18.0 °F 88% 29.78 in 10.0 mi Variable 4.6 mph - N/A   Clear
9:51 PM 19.9 °F 12.1 °F 18.0 °F 92% 29.79 in 10.0 mi WNW 5.8 mph - N/A   Clear
10:51 PM 17.1 °F - 14.0 °F 88% 29.79 in 9.0 mi Calm Calm - N/A   Clear